Miscellaneous Local Product
Issued by NWS Hastings, NE

Home | Current Version | Previous Version | Graphics & Text | Print | Product List | Glossary On
Versions: 1 2 3 4 5 6 7 8 9 10 11 12 13 14 15 16 17 18 19 20 21 22 23 24 25 26 27 28 29 30 31 32 33 34 35 36 37 38 39 40 41 42 43 44 45 46 47 48 49 50
000
AXUS43 KGID 271102
MISGRI

GID CWA HOURLY WEATHER ROUNDUP
NATIONAL WEATHER SERVICE HASTINGS NE
600 AM CDT MON MAR 27 2017

NOTE: "FAIR" INDICATES FEW OR NO CLOUDS BELOW 12,000 FEET WITH NO
SIGNIFICANT WEATHER AND/OR OBSTRUCTIONS TO VISIBILITY.

...SOUTH CENTRAL NEBRASKA...

CITY           SKY/WX    TMP DP  RH WIND       PRES   REMARKS
GRAND ISLAND   CLOUDY    43  43 100 NE6       29.95R
HASTINGS       CLOUDY    44  43  96 N5        29.95R
KEARNEY        CLOUDY    43  39  87 N5        29.95R VSB 1/4
ORD            CLOUDY    43  39  86 CALM      29.93S
YORK           CLOUDY    43  43 100 N8        29.94R
AURORA         CLOUDY    42  42 100 NE7       29.94R
LEXINGTON      FOG       34  33  95 NE3       29.93S VSB 1/4
HOLDREGE       CLOUDY    42  41  97 NE5       29.94R FOG
HEBRON         CLOUDY    44  43  96 NE8       29.92S FOG

...NEBRASKA PANHANDLE...

CITY           SKY/WX    TMP DP  RH WIND       PRES   REMARKS
CHADRON        FOG       29  27  92 CALM      29.90F VSB 1/2
ALLIANCE       CLEAR     26  25  96 W5        29.91R WCI  20
SCOTTSBLUFF    FOG       27  24  89 CALM      29.91S VSB 1/4
SIDNEY         CLEAR     27  25  92 NW6       29.93S WCI  20

...WESTERN AND NORTH CENTRAL NEBRASKA...

CITY           SKY/WX    TMP DP  RH WIND       PRES   REMARKS
VALENTINE      MOCLDY    29  26  89 SW5       29.92S FOG     WCI  24
AINSWORTH      CLOUDY    33  33 100 CALM      29.92S
ONEILL         CLOUDY    41  38  88 CALM      29.95S
BROKEN BOW     HAZE      42  32  67 S3        29.92S VSB 3/4
IMPERIAL       CLEAR     35  32  88 NW6       29.91S WCI  30
NORTH PLATTE   FOG       35  34  96 E5        29.91S VSB 1/4 WCI  31
MCCOOK         CLEAR     33  33 100 CALM      29.91F

...EASTERN NEBRASKA...

CITY           SKY/WX    TMP DP  RH WIND       PRES   REMARKS
NORFOLK        CLOUDY    42  40  92 CALM      29.94R
SO SIOUX CITY  CLOUDY    42  40  92 N5        29.96R
TEKAMAH        CLOUDY    44  40  85 N5        29.95F
COLUMBUS       CLOUDY    43  39  87 NE3       29.96R
ALBION         CLOUDY    44  40  86 N3        29.95R
OMAHA EPPLEY   CLOUDY    45  41  86 N6        29.94R
OFFUTT AFB     CLOUDY    46  42  87 VRB6      29.93S
MILLARD        CLOUDY    46  44  90 N6        29.94F
LINCOLN        CLOUDY    44  42  93 N8        29.94F
NEBRASKA CITY  CLOUDY    44  43  95 N8        29.92S
BEATRICE       CLOUDY    45  44  97 N8        29.91F FOG
FALLS CITY     CLOUDY    46  43  89 N7        29.90S

...NORTHERN KANSAS...

CITY           SKY/WX    TMP DP  RH WIND       PRES   REMARKS
GOODLAND       CLEAR     33  32  96 W8        29.92S WCI  26
HILL CITY      CLEAR     33  33 100 SW5       29.96R FOG     WCI  29
NORTON           N/A     34  30  86 SW6       29.94S FOG     WCI  29
PHILLIPSBURG   FOG       39  39 100 NW3       29.96R VSB 1/4
HAYS             N/A     45  44  97 NW5       29.95R
RUSSELL        CLOUDY    46  44  93 NW8       29.92R
CONCORDIA      CLOUDY    45  44  97 NE8       29.90F
SALINA         CLOUDY    47  45  93 N12       29.91R
TOPEKA         RAIN      46  46 100 N7        29.88R FOG



USA.gov is the U.S. government's official web portal to all federal, state and local government web resources and services.